Location: Ash Observatory
(39.7321°N, 75.2004°W)
Time: 19:08:04
(UTC-04:00)

ISS - Pass Details

Date: 22 May 2019
Orbit: 408 x 418 km, 51.6° (Epoch: 18 June)

Event Time Altitude Azimuth Distance (km) Brightness Sun altitude
Rises 22:49:25 0° 298° (WNW) 2,355 1.0 -22.8°
Reaches altitude 10° 22:52:47 10° 334° (NNW) 1,496 0.1 -23.1°
Maximum altitude 22:53:56 11° 354° (N) 1,417 -0.2 -23.2°
Drops below altitude 10° 22:55:06 10° 15° (NNE) 1,499 -0.4 -23.3°
Sets 22:58:29 0° 51° (NE) 2,366 0.2 -23.7°
